Lid_Strength_Index
9 12 14 12 11 11 12 13 13 11 11 14 16 17 17 16 17 19 19 19 19 19 17 17 17 17 17 17 17 17 17 16 16 15 14 12 10 8 9 9 9 9 5 5
12 14 11 9 10 11 11 13 13 11 12 14 17 19 18 18 18 18 19 20 20 19 19 18 18 18 18 18 17 17 17 17 17 16 15 13 12 10 11 12 11 10 10 10
13 11 9 9 11 12 12 13 13 13 14 15 17 20 20 18 18 18 19 19 19 20 20 20 19 20 19 19 19 18 17 17 17 16 16 14 14 13 14 14 13 12 12 12
12 9 10 11 11 11 14 11 11 13 14 18 15 22 21 20 21 21 21 21 21 20 20 20 20 20 20 20 19 18 18 18 17 17 17 17 17 17 16 16 14 14 13 13
12 11 12 12 11 11 12 10 11 12 14 15 16 19 21 20 22 22 22 21 21 21 21 21 20 20 20 20 20 19 19 19 18 17 17 18 19 18 17 17 17 16 15 14
11 9 10 11 10 10 9 11 11 12 14 18 15 16 22 21 22 23 22 22 22 21 22 21 21 21 21 21 21 21 20 20 20 19 18 19 19 19 19 19 18 18 17 16
13 12 11 10 12 11 11 13 18 19 19 19 15 16 23 22 21 22 23 23 22 22 22 23 23 23 22 23 23 22 22 22 21 21 20 20 20 19 19 19 19 19 18 18
17 17 12 11 12 13 13 13 17 21 21 19 17 22 24 21 21 21 22 22 22 23 23 23 24 24 24 23 23 23 23 23 23 23 22 21 21 21 21 21 20 20 19 18
16 16 13 12 12 11 13 15 12 16 16 19 24 24 22 21 22 22 23 23 24 24 24 24 24 24 25 25 24 24 24 24 24 23 23 23 22 22 23 22 22 22 21 20
15 16 13 13 11 12 13 12 15 16 20 21 23 26 24 24 24 23 24 25 25 24 25 25 25 25 25 25 25 24 24 24 24 23 24 23 23 22 22 23 23 23 22 21
14 15 17 13 17 17 14 14 14 14 15 19 22 24 22 22 23 24 24 25 25 25 26 25 25 25 25 25 25 25 25 24 24 24 23 24 24 22 23 23 23 22 22 21
16 17 21 19 16 15 17 18 17 17 18 18 19 27 23 23 23 23 24 23 24 24 25 25 25 25 25 25 25 25 25 25 24 24 24 24 24 24 24 24 24 23 23 22
16 19 23 21 19 17 19 19 18 17 18 21 21 27 23 23 24 24 25 25 24 24 25 26 27 27 28 28 28 28 27 27 26 25 25 25 25 25 26 25 25 24 24 24
13 18 21 21 20 18 20 20 19 21 24 24 27 28 27 27 26 26 26 27 29 29 27 29 30 31 32 33 32 30 30 30 29 28 28 28 28 27 27 27 26 26 25 26
15 20 20 20 19 20 22 21 21 22 25 24 27 29 27 30 30 31 31 29 28 30 30 32 33 33 34 33 32 32 33 32 33 31 31 30 29 29 29 29 28 28 28 27
17 21 19 22 19 19 23 22 21 21 24 25 26 28 28 30 32 30 31 29 30 31 30 30 32 33 33 34 32 29 30 31 32 31 30 30 30 30 29 29 28 29 28 28
16 17 20 24 20 20 26 29 24 25 26 25 24 27 27 27 25 30 31 30 31 32 33 31 31 31 30 30 28 29 29 30 30 30 28 28 27 28 28 27 28 27 28 28
18 18 21 25 20 28 28 23 23 25 26 26 26 27 29 30 30 31 33 33 34 33 31 30 30 30 30 31 30 30 29 28 28 28 27 26 26 25 25 25 25 26 25 26
15 18 23 24 27 27 28 26 25 26 28 30 29 30 30 31 32 30 31 33 32 33 31 31 30 30 30 30 29 29 28 28 29 27 26 24 24 23 23 23 23 22 22 22
16 16 20 24 27 27 28 27 28 30 28 29 28 30 31 33 32 30 33 32 31 30 30 29 28 29 32 28 28 29 27 26 26 23 23 22 21 21 22 22 22 21 21 20
20 21 24 23 30 30 29 29 29 28 27 28 28 30 32 31 30 32 33 31 31 29 27 27 27 27 26 25 26 25 23 24 21 20 20 20 20 21 21 21 21 21 21 20
24 25 25 25 29 28 27 28 27 29 35 33 35 34 33 32 33 32 28 27 25 25 24 24 24 24 23 23 22 22 22 20 20 20 19 20 20 19 18 19 19 19 20 21
26 27 26 28 28 30 33 30 34 35 32 35 33 35 33 33 30 27 26 26 25 24 22 21 22 22 21 21 21 21 20 20 20 20 20 20 19 18 18 18 18 18 19 20
28 30 29 29 30 32 34 36 37 37 35 36 35 34 32 30 28 27 25 24 23 22 22 22 22 22 22 20 19 20 20 19 20 20 19 19 19 18 18 17 17 17 18 19
29 27 30 33 31 34 35 37 35 36 37 34 34 30 27 26 25 25 24 23 22 21 21 21 21 20 20 19 20 19 18 18 19 18 18 18 17 18 18 17 17 17 16 16
31 29 28 28 33 32 34 37 36 32 31 30 28 26 24 23 23 23 23 22 22 22 21 21 20 19 19 19 19 18 17 17 18 18 17 17 17 17 17 17 18 13 12 10